Regional Weather Roundup
Issued by NWS

Home | Current Version | Previous Version | Text Only | Print | Product List | Glossary On
Versions: 1 2 3 4 5 6 7 8 9 10 11 12 13 14 15 16 17 18 19 20 21 22 23 24 25 26 27 28 29 30 31 32 33 34 35 36 37 38 39 40 41 42 43 44 45 46 47 48 49 50
000
ASUS43 KOAX 220710
RWRNE

WEATHER ROUNDUP FOR NEBRASKA
NATIONAL WEATHER SERVICE OMAHA NE
200 AM CDT FRI AUG 22 2014

NOTES: SATELLITE DATA IS BEING USED TO AUGMENT CLOUD COVER ABOVE
       12000 FEET.
       "FAIR" INDICATES FEW OR NO CLOUDS BELOW 12,000 FEET WITH NO
       SIGNIFICANT WEATHER AND/OR OBSTRUCTIONS TO VISIBILITY.

  * THESE STATIONS DO NOT REPORT WEATHER SUCH AS RAIN...SNOW OR FOG.

NEZ001>004-019>022-054>056-220800-
NEBRASKA PANHANDLE

CITY           SKY/WX    TMP DP  RH WIND       PRES   REMARKS
SCOTTSBLUFF    MOCLDY    66  53  63 NW5       30.04F
ALLIANCE       CLOUDY    70  52  52 SE9       30.03F
CHADRON        PTCLDY    66  49  54 W5        29.99S
KIMBALL        CLOUDY    67  48  52 SW5       30.11S
SIDNEY         CLOUDY    72  51  47 W13       30.10R
$$

NEZ057>060-069>072-079>082-220800-
SOUTHWEST NEBRASKA

CITY           SKY/WX    TMP DP  RH WIND       PRES   REMARKS
NORTH PLATTE   CLEAR     64  61  90 CALM      29.98R
IMPERIAL       PTCLDY    71  64  78 E3        30.00S
LEXINGTON      CLEAR     70  68  95 CALM      29.95R
MCCOOK         CLEAR     71  67  87 NE5       29.95F
OGALLALA       PTCLDY    63  60  91 CALM      30.01R
$$

NEZ005>010-023>029-035>040-094-220800-
NORTH CENTRAL NEBRASKA

CITY           SKY/WX    TMP DP  RH WIND       PRES   REMARKS
VALENTINE      CLEAR     70  61  73 E6        29.97S
AINSWORTH      CLEAR     66  62  87 SE6       29.98S
BROKEN BOW     CLEAR     66  64  93 N5        29.96S
O`NEILL        CLEAR     67  65  90 N3        29.95S
ORD            PTCLDY    69  66  90 NW8       29.92F
THEDFORD       CLEAR     64  61  88 CALM      30.00R
$$

NEZ041-046>049-061>064-073>077-083>087-220800-
SOUTH CENTRAL NEBRASKA

CITY           SKY/WX    TMP DP  RH WIND       PRES   REMARKS
GRAND ISLAND   PTCLDY    71  68  90 NW6       29.91F
AURORA         MOCLDY    74  72  93 S5        29.90F
HASTINGS       PTCLDY    73  66  78 S7        29.90F
HEBRON         CLOUDY    72  66  83 CALM      29.87F
HOLDREGE       CLEAR     71  67  88 SE6       29.93S
KEARNEY *      CLEAR     72  68  88 NE3       29.94S
YORK           CLOUDY    72 N/A N/A SW5       29.89F
$$

NEZ011>018-030>034-042>045-220800-
NORTHEAST NEBRASKA

CITY           SKY/WX    TMP DP  RH WIND       PRES   REMARKS
NORFOLK        PTCLDY    73  71  93 W5        29.88F
ALBION         PTCLDY    72  69  89 SE5       29.91F
BLAIR          CLOUDY    74  71  89 CALM      29.87F
FREMONT        CLOUDY    74  71  93 N3        29.88R
TEKAMAH        CLOUDY    73  71  93 W5        29.86R
WAYNE          PTCLDY    73  71  95 N3        29.89S
$$

NEZ050>053-065>068-078-088>093-220800-
SOUTHEAST NEBRASKA

CITY           SKY/WX    TMP DP  RH WIND       PRES   REMARKS
LINCOLN        CLOUDY    77  73  87 NE3       29.87S
OMAHA EPPLEY   CLOUDY    76  73  91 N7        29.86S
BEATRICE       CLOUDY    75  73  92 SW6       29.85F
FALLS CITY     CLOUDY    82  72  71 S7        29.85F
NEBRASKA CITY  CLOUDY    77  77 100 CALM      29.85S
PLATTSMOUTH    CLOUDY    77  74  90 NE3       29.86F
$$

NEZ044-045-051>053-067-220800-
OMAHA AREA

CITY           SKY/WX    TMP DP  RH WIND       PRES   REMARKS
OMAHA EPPLEY   CLOUDY    76  73  91 N7        29.86S
BLAIR          CLOUDY    74  71  89 CALM      29.87F
FREMONT        CLOUDY    74  71  93 N3        29.88R
MILLARD        CLOUDY    78  75  91 CALM      29.85F
OFFUTT AFB     CLOUDY    76  76 100 N2        29.85F
PLATTSMOUTH    CLOUDY    77  74  90 NE3       29.86F
WAHOO          CLOUDY    73  69  87 N3        29.87S
$$


USA.gov is the U.S. government's official web portal to all federal, state and local government web resources and services.